| time (UTC) | temp F | wind direction | speed knots | gust knots | rain 1hr in | rain 24hr in | rain mn in | humidity % | barometer mb |
| 20260508030135 | 43 | 293 | 0.0 | 0.0 | 0.00 | 0.12 | 0.00 | 90 | 1004.5 |
| 20260508025619 | 44 | 203 | 0.0 | 0.0 | 0.00 | 0.12 | 0.12 | 90 | 1004.6 |
| 20260508025111 | 44 | 158 | 0.0 | 1.7 | 0.00 | 0.12 | 0.12 | 90 | 1004.6 |
| 20260508024556 | 44 | 135 | 0.0 | 1.7 | 0.00 | 0.12 | 0.12 | 89 | 1004.5 |
| 20260508024046 | 44 | 293 | 0.0 | 0.0 | 0.00 | 0.12 | 0.12 | 89 | 1004.5 |
| 20260508023540 | 44 | 270 | 0.0 | 0.0 | 0.01 | 0.12 | 0.12 | 89 | 1004.5 |
| 20260508022520 | 43 | 248 | 0.0 | 0.0 | 0.01 | 0.12 | 0.12 | 89 | 1004.7 |
| 20260508022010 | 44 | 203 | 0.0 | 0.0 | 0.01 | 0.12 | 0.12 | 88 | 1004.8 |
| 20260508021500 | 44 | 270 | 0.0 | 0.0 | 0.01 | 0.12 | 0.12 | 88 | 1004.8 |
| 20260508020950 | 44 | 203 | 0.0 | 0.0 | 0.01 | 0.12 | 0.12 | 89 | 1005.2 |
| 20260508020448 | 43 | 225 | 0.0 | 0.0 | 0.01 | 0.12 | 0.12 | 89 | 1004.8 |
| 20260508015932 | 44 | 248 | 0.0 | 0.0 | 0.01 | 0.12 | 0.12 | 89 | 1004.9 |
| 20260508014930 | 43 | 248 | 0.0 | 0.0 | 0.01 | 0.12 | 0.12 | 90 | 1004.8 |
| 20260508013902 | 43 | 315 | 0.0 | 0.0 | 0.01 | 0.11 | 0.11 | 90 | 1005.0 |
| 20260508013335 | 44 | 225 | 0.0 | 0.0 | 0.01 | 0.11 | 0.11 | 89 | 1005.0 |
| 20260508012827 | 44 | 270 | 0.0 | 0.0 | 0.01 | 0.11 | 0.11 | 88 | 1005.3 |
| 20260508012327 | 43 | 248 | 0.0 | 1.7 | 0.01 | 0.11 | 0.11 | 89 | 1005.4 |
| 20260508011843 | 43 | 293 | 0.0 | 1.7 | 0.01 | 0.11 | 0.11 | 90 | 1005.3 |
| 20260508011255 | 43 | 270 | 0.0 | 0.0 | 0.01 | 0.11 | 0.11 | 90 | 1005.2 |
| 20260508010745 | 43 | 293 | 0.0 | 0.0 | 0.01 | 0.11 | 0.11 | 90 | 1005.5 |
| 20260508010239 | 43 | 248 | 0.0 | 0.0 | 0.01 | 0.11 | 0.11 | 90 | 1005.4 |
| 20260508005729 | 43 | 0 | 0.0 | 1.7 | 0.01 | 0.11 | 0.11 | 89 | 1005.6 |
| 20260508005217 | 43 | 180 | 0.0 | 1.7 | 0.02 | 0.11 | 0.11 | 89 | 1005.6 |
| 20260508004704 | 43 | 225 | 0.0 | 1.7 | 0.01 | 0.09 | 0.09 | 89 | 1005.5 |
| 20260508003645 | 42 | 270 | 0.0 | 0.0 | 0.01 | 0.09 | 0.09 | 90 | 1005.8 |
| 20260508003146 | 43 | 293 | 0.0 | 0.0 | 0.01 | 0.09 | 0.09 | 90 | 1005.8 |
| 20260508002626 | 42 | 225 | 0.0 | 0.0 | 0.01 | 0.09 | 0.09 | 90 | 1005.7 |
| 20260508002118 | 42 | 225 | 0.0 | 0.0 | 0.01 | 0.09 | 0.09 | 90 | 1005.8 |
| 20260508001604 | 42 | 248 | 0.0 | 0.0 | 0.02 | 0.09 | 0.09 | 90 | 1005.8 |
| 20260508000544 | 42 | 293 | 0.0 | 1.7 | 0.02 | 0.09 | 0.09 | 89 | 1006.0 |
| 20260508000038 | 42 | 248 | 0.0 | 1.7 | 0.02 | 0.09 | 0.09 | 89 | 1005.7 |
| 20260507235025 | 42 | 158 | 0.0 | 1.7 | 0.01 | 0.08 | 0.08 | 89 | 1005.6 |
| 20260507233445 | 42 | 248 | 0.0 | 1.7 | 0.01 | 0.09 | 0.08 | 89 | 1005.6 |
| 20260507232953 | 42 | 270 | 0.0 | 1.7 | 0.01 | 0.09 | 0.08 | 89 | 1005.8 |
| 20260507231944 | 42 | 270 | 0.0 | 1.7 | 0.01 | 0.12 | 0.08 | 90 | 1005.6 |
| 20260507231408 | 42 | 225 | 0.0 | 1.7 | 0.00 | 0.12 | 0.07 | 90 | 1005.7 |
| 20260507230856 | 42 | 158 | 0.0 | 0.0 | 0.00 | 0.12 | 0.07 | 90 | 1005.7 |
| 20260507230345 | 42 | 203 | 0.0 | 1.7 | 0.01 | 0.13 | 0.07 | 90 | 1005.7 |
| 20260507225832 | 42 | 248 | 0.0 | 1.7 | 0.01 | 0.13 | 0.07 | 90 | 1005.7 |
| 20260507225322 | 43 | 293 | 0.0 | 0.0 | 0.01 | 0.13 | 0.07 | 91 | 1005.9 |
| 20260507224814 | 43 | 248 | 0.0 | 1.7 | 0.01 | 0.14 | 0.07 | 91 | 1005.8 |
| 20260507224305 | 43 | 0 | 0.0 | 1.7 | 0.02 | 0.15 | 0.07 | 91 | 1005.9 |
| 20260507223752 | 43 | 270 | 0.0 | 0.0 | 0.02 | 0.18 | 0.07 | 91 | 1005.8 |
| 20260507223245 | 43 | 270 | 0.0 | 5.2 | 0.02 | 0.19 | 0.07 | 91 | 1005.8 |
| 20260507222736 | 43 | 90 | 0.9 | 5.2 | 0.02 | 0.20 | 0.07 | 91 | 1005.7 |
| 20260507222223 | 44 | 270 | 0.0 | 3.5 | 0.02 | 0.21 | 0.07 | 92 | 1006.0 |
| 20260507221713 | 44 | 203 | 0.0 | 0.0 | 0.02 | 0.24 | 0.07 | 92 | 1006.0 |
| 20260507221205 | 44 | 270 | 0.0 | 0.0 | 0.02 | 0.25 | 0.07 | 92 | 1005.7 |
| 20260507220659 | 44 | 225 | 0.0 | 1.7 | 0.01 | 0.25 | 0.06 | 91 | 1005.8 |
| 20260507220141 | 45 | 270 | 0.0 | 1.7 | 0.01 | 0.25 | 0.06 | 91 | 1005.5 |
| 20260507215630 | 45 | 270 | 0.0 | 0.0 | 0.01 | 0.25 | 0.06 | 91 | 1005.4 |
| 20260507215122 | 45 | 203 | 0.0 | 1.7 | 0.01 | 0.25 | 0.06 | 91 | 1005.2 |
| 20260507214627 | 45 | 248 | 0.0 | 1.7 | 0.00 | 0.24 | 0.05 | 91 | 1005.2 |
| 20260507214109 | 46 | 180 | 0.0 | 0.0 | 0.00 | 0.24 | 0.05 | 91 | 1005.0 |
| 20260507213645 | 46 | 248 | 0.0 | 0.0 | 0.00 | 0.24 | 0.05 | 91 | 1004.9 |
| 20260507213041 | 46 | 158 | 0.0 | 0.0 | 0.00 | 0.24 | 0.05 | 91 | 1004.6 |
| 20260507212531 | 46 | 203 | 0.0 | 0.0 | 0.00 | 0.24 | 0.05 | 91 | 1004.3 |
| 20260507212021 | 46 | 270 | 0.0 | 3.5 | 0.00 | 0.25 | 0.05 | 91 | 1004.6 |
| 20260507211514 | 46 | 203 | 0.0 | 3.5 | 0.00 | 0.25 | 0.05 | 91 | 1004.3 |
| 20260507210959 | 47 | 338 | 0.0 | 0.0 | 0.00 | 0.25 | 0.05 | 91 | 1004.0 |
| 20260507210450 | 47 | 203 | 0.0 | 0.0 | 0.00 | 0.26 | 0.05 | 91 | 1004.0 |
| 20260507205942 | 47 | 293 | 0.0 | 1.7 | 0.00 | 0.26 | 0.05 | 91 | 1004.0 |
| 20260507205438 | 47 | 203 | 0.0 | 1.7 | 0.00 | 0.27 | 0.05 | 91 | 1004.1 |
| 20260507204919 | 47 | 248 | 0.0 | 0.0 | 0.00 | 0.27 | 0.05 | 91 | 1004.1 |
| 20260507203900 | 47 | 270 | 0.0 | 0.0 | 0.00 | 0.27 | 0.05 | 91 | 1004.0 |
| 20260507203349 | 47 | 293 | 0.0 | 0.0 | 0.00 | 0.28 | 0.05 | 91 | 1004.3 |
| 20260507202838 | 47 | 225 | 0.0 | 0.0 | 0.00 | 0.28 | 0.05 | 91 | 1004.4 |
| 20260507202328 | 47 | 248 | 0.0 | 0.0 | 0.00 | 0.28 | 0.05 | 91 | 1004.3 |
| 20260507201820 | 47 | 270 | 0.0 | 0.0 | 0.00 | 0.28 | 0.05 | 91 | 1004.3 |
| 20260507201309 | 47 | 248 | 0.0 | 0.0 | 0.00 | 0.28 | 0.05 | 91 | 1004.4 |
| 20260507200758 | 48 | 180 | 0.0 | 0.0 | 0.00 | 0.28 | 0.05 | 91 | 1004.4 |
| 20260507200249 | 48 | 248 | 0.0 | 0.0 | 0.00 | 0.28 | 0.05 | 91 | 1004.4 |
| 20260507195738 | 48 | 90 | 0.0 | 0.0 | 0.00 | 0.30 | 0.05 | 91 | 1004.4 |
| 20260507195228 | 48 | 270 | 0.0 | 0.0 | 0.00 | 0.30 | 0.05 | 91 | 1004.3 |
| 20260507194716 | 48 | 248 | 0.0 | 0.0 | 0.00 | 0.30 | 0.05 | 91 | 1004.3 |
| 20260507194208 | 48 | 203 | 0.0 | 0.0 | 0.00 | 0.30 | 0.05 | 91 | 1004.4 |
| 20260507193701 | 48 | 315 | 0.0 | 0.0 | 0.00 | 0.30 | 0.05 | 91 | 1004.4 |
| 20260507193149 | 48 | 293 | 0.0 | 0.0 | 0.00 | 0.30 | 0.05 | 91 | 1004.5 |
| 20260507192127 | 49 | 270 | 0.0 | 0.0 | 0.00 | 0.30 | 0.05 | 91 | 1004.5 |
| 20260507191617 | 48 | 180 | 0.0 | 0.0 | 0.00 | 0.30 | 0.05 | 91 | 1004.6 |
| 20260507190601 | 48 | 180 | 0.0 | 0.0 | 0.00 | 0.30 | 0.05 | 91 | 1004.2 |
| 20260507190050 | 48 | 135 | 0.0 | 0.0 | 0.00 | 0.30 | 0.05 | 91 | 1004.3 |
| 20260507185542 | 48 | 248 | 0.0 | 0.0 | 0.00 | 0.30 | 0.05 | 91 | 1004.5 |
| 20260507185027 | 49 | 270 | 0.0 | 0.0 | 0.00 | 0.30 | 0.05 | 91 | 1004.5 |
| 20260507184526 | 49 | 248 | 0.0 | 0.0 | 0.00 | 0.30 | 0.05 | 91 | 1004.3 |
| 20260507184007 | 49 | 248 | 0.0 | 0.0 | 0.00 | 0.30 | 0.05 | 91 | 1004.3 |
| 20260507183457 | 49 | 270 | 0.0 | 0.0 | 0.00 | 0.30 | 0.05 | 91 | 1004.2 |
| 20260507182946 | 49 | 248 | 0.0 | 0.0 | 0.00 | 0.30 | 0.05 | 91 | 1004.3 |
| 20260507182449 | 50 | 158 | 0.0 | 0.0 | 0.00 | 0.30 | 0.05 | 91 | 1004.0 |
| 20260507181930 | 49 | 203 | 0.0 | 0.0 | 0.00 | 0.30 | 0.05 | 91 | 1003.9 |
| 20260507180905 | 50 | 225 | 0.0 | 0.0 | 0.00 | 0.30 | 0.05 | 91 | 1004.0 |
| 20260507180355 | 50 | 203 | 0.0 | 0.0 | 0.00 | 0.30 | 0.05 | 91 | 1003.9 |
| 20260507175845 | 51 | 225 | 0.0 | 0.0 | 0.00 | 0.30 | 0.05 | 91 | 1003.8 |
| 20260507175337 | 51 | 203 | 0.0 | 0.0 | 0.00 | 0.30 | 0.05 | 90 | 1003.5 |
| 20260507174825 | 51 | 293 | 0.0 | 0.0 | 0.00 | 0.30 | 0.05 | 90 | 1003.4 |
| 20260507174315 | 51 | 158 | 0.0 | 0.0 | 0.00 | 0.30 | 0.05 | 90 | 1003.5 |
| 20260507173804 | 51 | 248 | 0.0 | 0.0 | 0.00 | 0.30 | 0.05 | 90 | 1003.3 |
| 20260507173257 | 51 | 270 | 0.0 | 0.0 | 0.00 | 0.30 | 0.05 | 90 | 1003.5 |
| 20260507172746 | 51 | 270 | 0.0 | 0.0 | 0.00 | 0.30 | 0.05 | 90 | 1003.1 |
| 20260507172235 | 51 | 293 | 0.0 | 0.0 | 0.00 | 0.30 | 0.05 | 89 | 1003.3 |
| 20260507171724 | 51 | 270 | 0.0 | 0.0 | 0.00 | 0.30 | 0.05 | 88 | 1003.3 |
| 20260507171217 | 52 | 270 | 0.0 | 0.0 | 0.00 | 0.30 | 0.05 | 88 | 1003.3 |
| 20260507170705 | 52 | 203 | 0.0 | 0.0 | 0.00 | 0.30 | 0.05 | 89 | 1003.5 |
| 20260507170154 | 51 | 248 | 0.0 | 0.0 | 0.00 | 0.30 | 0.05 | 89 | 1003.0 |
| 20260507165643 | 51 | 135 | 0.0 | 0.0 | 0.00 | 0.30 | 0.05 | 90 | 1003.2 |
| 20260507165133 | 52 | 180 | 0.0 | 0.0 | 0.00 | 0.30 | 0.05 | 90 | 1003.1 |
| 20260507164624 | 52 | 293 | 0.0 | 0.0 | 0.00 | 0.30 | 0.05 | 90 | 1003.2 |
| 20260507164114 | 51 | 225 | 0.0 | 0.0 | 0.00 | 0.30 | 0.05 | 90 | 1003.1 |
| 20260507163058 | 52 | 270 | 0.0 | 0.0 | 0.00 | 0.30 | 0.05 | 90 | 1003.5 |
| 20260507162544 | 52 | 270 | 0.0 | 0.0 | 0.00 | 0.30 | 0.05 | 90 | 1003.4 |
| 20260507162034 | 52 | 270 | 0.0 | 0.0 | 0.00 | 0.31 | 0.05 | 90 | 1003.3 |
| 20260507161013 | 52 | 248 | 0.0 | 0.0 | 0.00 | 0.38 | 0.05 | 90 | 1003.1 |
| 20260507160503 | 52 | 270 | 0.0 | 0.0 | 0.00 | 0.43 | 0.05 | 90 | 1003.3 |
| 20260507155953 | 52 | 248 | 0.0 | 0.0 | 0.00 | 0.44 | 0.05 | 90 | 1003.5 |
| 20260507154934 | 52 | 338 | 0.0 | 0.0 | 0.00 | 0.46 | 0.05 | 90 | 1003.3 |
| 20260507154423 | 53 | 248 | 0.0 | 0.0 | 0.00 | 0.46 | 0.05 | 88 | 1002.9 |
| 20260507153403 | 53 | 225 | 0.0 | 0.0 | 0.00 | 0.47 | 0.05 | 89 | 1002.9 |
| 20260507152858 | 53 | 270 | 0.0 | 0.0 | 0.00 | 0.47 | 0.05 | 89 | 1002.7 |
| 20260507150811 | 55 | 270 | 0.0 | 0.0 | 0.00 | 0.48 | 0.05 | 85 | 1002.6 |
| 20260507150303 | 55 | 270 | 0.0 | 0.0 | 0.00 | 0.48 | 0.05 | 84 | 1002.5 |
| 20260507145751 | 56 | 113 | 0.0 | 0.0 | 0.00 | 0.48 | 0.05 | 83 | 1002.5 |
| 20260507145243 | 57 | 293 | 0.0 | 0.0 | 0.00 | 0.48 | 0.05 | 82 | 1002.1 |
| 20260507144732 | 56 | 203 | 0.0 | 0.0 | 0.00 | 0.48 | 0.05 | 83 | 1002.3 |
| 20260507144222 | 57 | 270 | 0.0 | 0.0 | 0.00 | 0.50 | 0.05 | 82 | 1002.4 |
| 20260507143711 | 57 | 315 | 0.0 | 0.0 | 0.00 | 0.50 | 0.05 | 81 | 1001.7 |
| 20260507143200 | 57 | 158 | 0.0 | 0.0 | 0.00 | 0.50 | 0.05 | 80 | 1001.8 |
| 20260507142650 | 57 | 293 | 0.0 | 0.0 | 0.00 | 0.51 | 0.05 | 79 | 1001.7 |
| 20260507142142 | 58 | 270 | 0.0 | 0.0 | 0.00 | 0.54 | 0.05 | 78 | 1001.7 |
| 20260507141631 | 61 | 158 | 0.0 | 0.0 | 0.00 | 0.56 | 0.05 | 76 | 1001.8 |
| 20260507141120 | 59 | 270 | 0.0 | 0.0 | 0.00 | 0.56 | 0.05 | 78 | 1002.0 |
| 20260507140612 | 59 | 270 | 0.0 | 0.0 | 0.00 | 0.56 | 0.05 | 82 | 1001.9 |
| 20260507140110 | 57 | 248 | 0.0 | 0.0 | 0.00 | 0.57 | 0.05 | 85 | 1002.2 |
| 20260507135549 | 55 | 270 | 0.0 | 0.0 | 0.00 | 0.58 | 0.05 | 89 | 1002.3 |
| 20260507135040 | 54 | 248 | 0.0 | 0.0 | 0.00 | 0.59 | 0.05 | 92 | 1002.4 |
| 20260507134532 | 55 | 270 | 0.0 | 0.0 | 0.00 | 0.61 | 0.05 | 93 | 1002.1 |
| 20260507134019 | 55 | 270 | 0.0 | 0.0 | 0.00 | 0.65 | 0.05 | 94 | 1002.0 |
| 20260507133509 | 55 | 293 | 0.0 | 0.0 | 0.00 | 0.69 | 0.05 | 94 | 1001.9 |
| 20260507133000 | 54 | 293 | 0.0 | 0.0 | 0.00 | 0.70 | 0.05 | 94 | 1002.1 |
| 20260507132448 | 54 | 293 | 0.0 | 0.0 | 0.00 | 0.70 | 0.05 | 94 | 1001.9 |
| 20260507131939 | 54 | 293 | 0.0 | 0.0 | 0.00 | 0.72 | 0.05 | 95 | 1002.1 |
| 20260507131428 | 53 | 225 | 0.0 | 0.0 | 0.00 | 0.73 | 0.05 | 95 | 1002.1 |
| 20260507130919 | 54 | 248 | 0.0 | 0.0 | 0.00 | 0.73 | 0.05 | 95 | 1002.1 |
| 20260507130409 | 54 | 203 | 0.0 | 0.0 | 0.00 | 0.73 | 0.05 | 95 | 1002.1 |
| 20260507125858 | 55 | 270 | 0.0 | 0.0 | 0.00 | 0.73 | 0.05 | 95 | 1002.3 |
| 20260507124842 | 53 | 270 | 0.0 | 0.0 | 0.00 | 0.73 | 0.05 | 95 | 1002.5 |
| 20260507124329 | 53 | 293 | 0.0 | 0.0 | 0.00 | 0.73 | 0.05 | 95 | 1002.6 |
| 20260507123308 | 53 | 315 | 0.0 | 0.0 | 0.00 | 0.73 | 0.05 | 95 | 1002.5 |
| 20260507122757 | 53 | 293 | 0.0 | 0.0 | 0.00 | 0.73 | 0.05 | 95 | 1002.4 |
| 20260507122253 | 52 | 315 | 0.0 | 0.0 | 0.00 | 0.73 | 0.05 | 95 | 1002.6 |
| 20260507121738 | 51 | 293 | 0.0 | 0.0 | 0.00 | 0.73 | 0.05 | 95 | 1002.5 |
| 20260507121227 | 51 | 225 | 0.0 | 0.0 | 0.00 | 0.73 | 0.05 | 95 | 1002.4 |
| 20260507120207 | 51 | 293 | 0.0 | 0.0 | 0.00 | 0.73 | 0.05 | 95 | 1002.7 |
| 20260507115657 | 51 | 315 | 0.0 | 0.0 | 0.00 | 0.73 | 0.05 | 95 | 1002.9 |
| 20260507115147 | 51 | 270 | 0.0 | 0.0 | 0.00 | 0.73 | 0.05 | 95 | 1002.8 |
| 20260507114637 | 53 | 293 | 0.0 | 0.0 | 0.00 | 0.73 | 0.05 | 95 | 1002.8 |
| 20260507114128 | 53 | 293 | 0.0 | 0.0 | 0.00 | 0.73 | 0.05 | 95 | 1002.6 |
| 20260507113617 | 53 | 270 | 0.0 | 0.0 | 0.01 | 0.73 | 0.05 | 95 | 1002.5 |
| 20260507113108 | 53 | 248 | 0.0 | 0.0 | 0.01 | 0.73 | 0.05 | 95 | 1002.9 |
| 20260507112557 | 53 | 0 | 0.0 | 0.0 | 0.01 | 0.73 | 0.05 | 95 | 1002.8 |
| 20260507112048 | 53 | 225 | 0.0 | 0.0 | 0.01 | 0.73 | 0.05 | 95 | 1003.1 |
| 20260507111540 | 53 | 113 | 0.0 | 0.0 | 0.01 | 0.73 | 0.05 | 95 | 1003.1 |
| 20260507111026 | 53 | 45 | 0.0 | 0.0 | 0.01 | 0.73 | 0.05 | 95 | 1003.3 |
| 20260507110007 | 53 | 203 | 0.0 | 0.0 | 0.01 | 0.73 | 0.05 | 95 | 1003.5 |
| 20260507105456 | 53 | 225 | 0.0 | 0.0 | 0.01 | 0.73 | 0.05 | 95 | 1003.4 |
| 20260507104945 | 53 | 225 | 0.0 | 0.0 | 0.01 | 0.73 | 0.05 | 95 | 1003.3 |
| 20260507104439 | 54 | 248 | 0.0 | 0.0 | 0.01 | 0.73 | 0.05 | 95 | 1003.4 |
| 20260507103926 | 54 | 180 | 0.0 | 0.0 | 0.01 | 0.73 | 0.05 | 95 | 1003.2 |
| 20260507103417 | 52 | 315 | 0.0 | 0.0 | 0.00 | 0.72 | 0.04 | 95 | 1003.3 |
| 20260507102908 | 53 | 225 | 0.0 | 0.0 | 0.00 | 0.72 | 0.04 | 95 | 1003.5 |
| 20260507101335 | 53 | 0 | 0.0 | 0.0 | 0.00 | 0.72 | 0.04 | 95 | 1003.6 |
| 20260507100827 | 53 | 90 | 0.0 | 0.0 | 0.00 | 0.72 | 0.04 | 95 | 1003.5 |
| 20260507100314 | 53 | 0 | 0.0 | 0.0 | 0.00 | 0.72 | 0.04 | 95 | 1003.6 |
| 20260507095805 | 53 | 23 | 0.0 | 0.0 | 0.00 | 0.72 | 0.04 | 95 | 1003.7 |
| 20260507095254 | 53 | 23 | 0.0 | 0.0 | 0.00 | 0.72 | 0.04 | 95 | 1003.6 |
| 20260507094744 | 53 | 45 | 0.0 | 0.0 | 0.00 | 0.72 | 0.04 | 95 | 1003.6 |
| 20260507093724 | 54 | 225 | 0.0 | 0.0 | 0.00 | 0.72 | 0.04 | 95 | 1004.1 |
| 20260507093213 | 54 | 338 | 0.0 | 0.0 | 0.00 | 0.72 | 0.04 | 95 | 1003.7 |
| 20260507092707 | 54 | 293 | 0.0 | 0.0 | 0.00 | 0.72 | 0.04 | 95 | 1003.6 |
| 20260507092155 | 54 | 315 | 0.0 | 0.0 | 0.00 | 0.72 | 0.04 | 95 | 1003.6 |
| 20260507091643 | 54 | 158 | 0.0 | 0.0 | 0.00 | 0.72 | 0.04 | 95 | 1003.5 |
| 20260507091133 | 54 | 45 | 0.0 | 0.0 | 0.00 | 0.72 | 0.04 | 95 | 1003.4 |
| 20260507090623 | 54 | 0 | 0.0 | 0.0 | 0.00 | 0.72 | 0.04 | 95 | 1003.2 |
| 20260507090113 | 54 | 293 | 0.0 | 0.0 | 0.00 | 0.72 | 0.04 | 95 | 1003.1 |
| 20260507085605 | 54 | 23 | 0.0 | 0.0 | 0.00 | 0.72 | 0.04 | 95 | 1003.2 |
| 20260507085053 | 54 | 45 | 0.0 | 0.0 | 0.00 | 0.72 | 0.04 | 95 | 1003.2 |
| 20260507084543 | 54 | 0 | 0.0 | 0.0 | 0.00 | 0.72 | 0.04 | 95 | 1003.5 |
| 20260507084033 | 54 | 45 | 0.0 | 0.0 | 0.00 | 0.72 | 0.04 | 95 | 1003.2 |
| 20260507083526 | 54 | 68 | 0.0 | 0.0 | 0.00 | 0.72 | 0.04 | 95 | 1003.0 |
| 20260507083012 | 54 | 23 | 0.0 | 0.0 | 0.00 | 0.72 | 0.04 | 95 | 1002.9 |
| 20260507082503 | 54 | 23 | 0.0 | 0.0 | 0.00 | 0.72 | 0.04 | 95 | 1002.9 |
| 20260507081954 | 54 | 45 | 0.0 | 0.0 | 0.00 | 0.72 | 0.04 | 95 | 1003.1 |
| 20260507081441 | 55 | 68 | 0.0 | 0.0 | 0.00 | 0.72 | 0.04 | 95 | 1003.3 |
| 20260507080932 | 55 | 68 | 0.0 | 0.0 | 0.00 | 0.72 | 0.04 | 95 | 1003.4 |
| 20260507080423 | 55 | 45 | 0.0 | 0.0 | 0.00 | 0.72 | 0.04 | 95 | 1003.4 |
| 20260507075911 | 54 | 45 | 0.0 | 0.0 | 0.00 | 0.72 | 0.04 | 95 | 1003.8 |
| 20260507074341 | 54 | 23 | 0.0 | 0.0 | 0.00 | 0.72 | 0.04 | 95 | 1003.3 |
| 20260507073832 | 54 | 338 | 0.0 | 0.0 | 0.00 | 0.72 | 0.04 | 95 | 1003.5 |
| 20260507073321 | 54 | 338 | 0.0 | 0.0 | 0.00 | 0.72 | 0.04 | 95 | 1003.4 |
| 20260507072812 | 54 | 338 | 0.0 | 0.0 | 0.00 | 0.72 | 0.04 | 95 | 1003.5 |
| 20260507072301 | 54 | 45 | 0.0 | 0.0 | 0.00 | 0.72 | 0.04 | 95 | 1003.7 |
| 20260507071750 | 54 | 0 | 0.0 | 0.0 | 0.00 | 0.72 | 0.04 | 95 | 1003.8 |
| 20260507071241 | 54 | 0 | 0.0 | 0.0 | 0.00 | 0.72 | 0.04 | 95 | 1003.9 |
| 20260507070221 | 54 | 68 | 0.0 | 0.0 | 0.00 | 0.72 | 0.04 | 95 | 1003.8 |
| 20260507065200 | 54 | 270 | 0.0 | 0.0 | 0.00 | 0.72 | 0.04 | 95 | 1003.5 |
| 20260507064141 | 53 | 338 | 0.0 | 0.0 | 0.00 | 0.72 | 0.04 | 95 | 1003.3 |
| 20260507063630 | 53 | 68 | 0.0 | 0.0 | 0.00 | 0.72 | 0.04 | 95 | 1003.2 |
| 20260507063119 | 53 | 293 | 0.0 | 0.0 | 0.00 | 0.72 | 0.04 | 95 | 1003.1 |
| 20260507062609 | 53 | 270 | 0.0 | 0.0 | 0.00 | 0.72 | 0.04 | 95 | 1003.0 |
| 20260507061550 | 54 | 315 | 0.0 | 0.0 | 0.01 | 0.72 | 0.04 | 95 | 1003.4 |
| 20260507061039 | 54 | 315 | 0.0 | 0.0 | 0.02 | 0.72 | 0.04 | 95 | 1003.8 |
| 20260507060529 | 54 | 293 | 0.0 | 0.0 | 0.02 | 0.72 | 0.04 | 95 | 1004.0 |
| 20260507060019 | 54 | 315 | 0.0 | 0.0 | 0.02 | 0.72 | 0.04 | 95 | 1004.2 |
| 20260507055508 | 54 | 270 | 0.0 | 0.0 | 0.02 | 0.72 | 0.04 | 95 | 1004.6 |
| 20260507054958 | 54 | 293 | 0.0 | 0.0 | 0.02 | 0.72 | 0.04 | 95 | 1004.3 |
| 20260507054448 | 54 | 270 | 0.0 | 0.0 | 0.02 | 0.72 | 0.04 | 95 | 1004.6 |
| 20260507053939 | 54 | 338 | 0.0 | 0.0 | 0.02 | 0.72 | 0.04 | 95 | 1004.8 |
| 20260507053429 | 54 | 0 | 0.0 | 0.0 | 0.02 | 0.72 | 0.04 | 95 | 1004.8 |
| 20260507052918 | 54 | 23 | 0.0 | 0.0 | 0.02 | 0.72 | 0.04 | 95 | 1004.9 |
| 20260507052410 | 54 | 23 | 0.0 | 0.0 | 0.02 | 0.72 | 0.04 | 95 | 1005.0 |
| 20260507051858 | 54 | 23 | 0.0 | 0.0 | 0.01 | 0.71 | 0.02 | 95 | 1005.3 |
| 20260507051348 | 54 | 23 | 0.0 | 0.0 | 0.02 | 0.71 | 0.02 | 95 | 1004.8 |
| 20260507050838 | 54 | 270 | 0.0 | 0.0 | 0.01 | 0.70 | 0.01 | 95 | 1005.5 |
| 20260507050328 | 54 | 225 | 0.0 | 0.0 | 0.01 | 0.70 | 0.01 | 95 | 1005.3 |
| 20260507045819 | 54 | 68 | 0.0 | 0.0 | 0.01 | 0.70 | 0.01 | 95 | 1005.3 |
| 20260507045308 | 54 | 45 | 0.0 | 0.0 | 0.01 | 0.70 | 0.01 | 95 | 1005.0 |
| 20260507044759 | 54 | 23 | 0.0 | 0.0 | 0.01 | 0.70 | 0.01 | 95 | 1005.0 |
| 20260507044248 | 53 | 68 | 0.0 | 0.0 | 0.01 | 0.70 | 0.01 | 95 | 1004.8 |
| 20260507043737 | 53 | 248 | 0.0 | 0.0 | 0.01 | 0.70 | 0.01 | 95 | 1004.5 |
| 20260507043227 | 54 | 203 | 0.0 | 0.0 | 0.01 | 0.70 | 0.01 | 95 | 1004.0 |
| 20260507042737 | 54 | 315 | 0.0 | 0.0 | 0.01 | 0.70 | 0.01 | 95 | 1004.6 |
| 20260507041147 | 54 | 225 | 0.0 | 0.0 | 0.00 | 0.69 | 0.00 | 95 | 1005.6 |
| 20260507040638 | 54 | 270 | 0.0 | 0.0 | 0.00 | 0.69 | 0.00 | 95 | 1005.5 |
| 20260507040127 | 54 | 270 | 0.0 | 0.0 | 0.00 | 0.69 | 0.00 | 94 | 1005.2 |
| 20260507035619 | 54 | 293 | 0.0 | 0.0 | 0.00 | 0.69 | 0.00 | 94 | 1005.0 |
| 20260507035111 | 54 | 315 | 0.0 | 0.0 | 0.00 | 0.69 | 0.00 | 95 | 1005.5 |
| 20260507034046 | 53 | 293 | 0.0 | 0.0 | 0.00 | 0.69 | 0.00 | 94 | 1005.7 |
| 20260507033536 | 53 | 315 | 0.0 | 0.0 | 0.00 | 0.69 | 0.00 | 95 | 1005.9 |
| 20260507033025 | 54 | 315 | 0.0 | 0.0 | 0.00 | 0.69 | 0.00 | 95 | 1005.6 |
| 20260507032516 | 53 | 293 | 0.0 | 0.0 | 0.00 | 0.69 | 0.00 | 94 | 1005.7 |
| 20260507032005 | 53 | 293 | 0.0 | 0.0 | 0.00 | 0.69 | 0.00 | 95 | 1005.7 |
| 20260507031459 | 53 | 0 | 0.0 | 0.0 | 0.00 | 0.69 | 0.00 | 94 | 1005.5 |
| 20260507030947 | 53 | 225 | 0.0 | 0.0 | 0.00 | 0.69 | 0.00 | 95 | 1005.7 |
| 20260507030437 | 54 | 270 | 0.0 | 0.0 | 0.00 | 0.69 | 0.00 | 95 | 1005.7 |